This is the latest recevied weather packets stored in our database for station/object Kozakov. If no packets are shown the sender has not sent any weather packets the latest 1 day(s).
| Time | Temp. | Humidity | Pressure | Rain* | Wind** | Luminosity | Snow |
|---|---|---|---|---|---|---|---|
| 1778018417 | 12.22° C | 100% | - | - | 4.92 m/s, 252° | - | - |
| 1778018126 | 12.78° C | 100% | - | - | 3.13 m/s, 129° | - | - |
| 1778017822 | 12.78° C | 100% | - | - | 8.05 m/s, 94° | - | - |
| 1778017517 | 13.89° C | 100% | - | - | 8.05 m/s, 85° | - | - |
| 1778017217 | 12.78° C | 100% | - | - | 8.05 m/s, 83° | - | - |
| 1778016917 | 12.78° C | 100% | - | - | 8.94 m/s, 86° | - | - |
| 1778016617 | 12.78° C | 100% | - | - | 8.05 m/s, 84° | - | - |
| 1778016318 | 12.78° C | 100% | - | - | 8.94 m/s, 79° | - | - |
| 1778016018 | 12.78° C | 100% | - | - | 8.94 m/s, 82° | - | - |
| 1778015718 | 12.78° C | 100% | - | - | 8.05 m/s, 75° | - | - |
| 1778015417 | 12.22° C | 100% | - | - | 7.15 m/s, 74° | - | - |
| 1778015117 | 12.78° C | 100% | - | - | 8.05 m/s, 68° | - | - |
| 1778014817 | 13.89° C | 100% | - | - | 8.05 m/s, 70° | - | - |
| 1778014517 | 13.89° C | 99% | - | - | 8.94 m/s, 68° | - | - |
| 1778014216 | 12.78° C | 100% | - | - | 8.05 m/s, 68° | - | - |
| 1778013918 | 13.89° C | 100% | - | - | 8.05 m/s, 65° | - | - |
| 1778013617 | 13.89° C | 100% | - | - | 7.15 m/s, 64° | - | - |
| 1778013324 | 12.78° C | 100% | - | - | 8.05 m/s, 60° | - | - |
| 1778013018 | 12.78° C | 100% | - | - | 7.15 m/s, 56° | - | - |
| 1778012718 | 12.78° C | 100% | - | - | 8.05 m/s, 64° | - | - |
| 1778012427 | 12.22° C | 100% | - | - | 7.15 m/s, 62° | - | - |
| 1778012117 | 12.78° C | 100% | - | - | 7.15 m/s, 58° | - | - |
| 1778011818 | 12.78° C | 100% | - | - | 7.15 m/s, 57° | - | - |
| 1778011519 | 12.78° C | 100% | - | - | 7.15 m/s, 51° | - | - |
| 1778011225 | 12.78° C | 100% | - | - | 7.15 m/s, 50° | - | - |
* Rain since midnight (hover to see other rain measurements)
** Current wind speed in m/s (hover to see current wind gust speed)